Time,TemperatureF,DewpointF,PressureIn,WindDirection,WindDirectionDegrees,WindSpeedMPH,WindSpeedGustMPH,Humidity,HourlyPrecipIn,Conditions,Clouds,dailyrainin,SoftwareType,DateUTC
2013-03-18 00:05:00,34.6,29.4,29.72,ESE,107,0.0,0.0,81,0.00,,,0.00,Wunderground v.1.15,2013-03-18 05:05:00,
2013-03-18 00:15:00,34.6,29.7,29.72,East,95,0.0,0.0,82,0.00,,,0.00,Wunderground v.1.15,2013-03-18 05:15:00,
2013-03-18 00:25:00,34.6,29.7,29.71,East,90,0.0,0.0,82,0.00,,,0.00,Wunderground v.1.15,2013-03-18 05:25:00,
2013-03-18 00:30:00,34.4,29.8,29.71,East,88,0.0,0.0,83,0.00,,,0.00,Wunderground v.1.15,2013-03-18 05:30:00,
2013-03-18 00:39:00,34.4,29.8,29.71,East,86,0.0,0.0,83,0.00,,,0.00,Wunderground v.1.15,2013-03-18 05:39:00,
2013-03-18 00:44:00,34.4,30.1,29.71,East,85,0.0,0.0,84,0.00,,,0.00,Wunderground v.1.15,2013-03-18 05:44:00,
2013-03-18 00:54:00,34.4,30.1,29.70,East,83,0.0,0.0,84,0.00,,,0.00,Wunderground v.1.15,2013-03-18 05:54:00,
2013-03-18 00:59:00,34.3,30.0,29.70,East,83,0.0,0.0,84,0.00,,,0.00,Wunderground v.1.15,2013-03-18 05:59:00,
2013-03-18 01:09:00,34.3,30.3,29.68,East,93,0.0,0.0,85,0.00,,,0.00,Wunderground v.1.15,2013-03-18 06:09:00,
2013-03-18 01:19:00,34.1,30.1,29.68,East,96,0.0,0.0,85,0.00,,,0.00,Wunderground v.1.15,2013-03-18 06:19:00,
2013-03-18 01:24:00,34.1,30.1,29.68,East,96,0.0,0.0,85,0.00,,,0.00,Wunderground v.1.15,2013-03-18 06:24:00,
2013-03-18 01:34:00,34.1,30.4,29.68,East,89,0.0,0.0,86,0.00,,,0.00,Wunderground v.1.15,2013-03-18 06:34:00,
2013-03-18 01:44:00,34.0,30.3,29.68,East,89,0.0,0.0,86,0.00,,,0.00,Wunderground v.1.15,2013-03-18 06:44:00,
2013-03-18 01:54:00,34.1,30.4,29.69,East,89,0.0,0.0,86,0.00,,,0.00,Wunderground v.1.15,2013-03-18 06:54:00,
2013-03-18 02:04:00,34.0,30.3,29.69,East,88,0.0,0.0,86,0.00,,,0.00,Wunderground v.1.15,2013-03-18 07:04:00,
2013-03-18 02:09:00,34.0,30.3,29.69,East,88,0.0,0.0,86,0.00,,,0.01,Wunderground v.1.15,2013-03-18 07:09:00,
2013-03-18 02:19:00,33.8,30.1,29.70,NNW,330,0.0,0.0,86,0.00,,,0.01,Wunderground v.1.15,2013-03-18 07:19:00,
2013-03-18 02:24:00,33.8,30.1,29.70,NNW,329,0.0,0.0,86,0.00,,,0.01,Wunderground v.1.15,2013-03-18 07:24:00,
2013-03-18 02:34:00,33.7,30.2,29.69,NNW,329,0.0,0.0,87,0.00,,,0.01,Wunderground v.1.15,2013-03-18 07:34:00,
2013-03-18 02:44:00,33.7,30.2,29.69,NNW,329,0.0,0.0,87,0.00,,,0.01,Wunderground v.1.15,2013-03-18 07:44:00,
2013-03-18 02:54:00,33.7,30.2,29.69,NNW,329,0.0,0.0,87,0.00,,,0.01,Wunderground v.1.15,2013-03-18 07:54:00,
2013-03-18 03:04:00,33.7,30.2,29.70,NW,319,0.0,0.0,87,0.00,,,0.01,Wunderground v.1.15,2013-03-18 08:04:00,
2013-03-18 03:14:00,33.7,30.5,29.70,WNW,294,0.0,0.0,88,0.00,,,0.01,Wunderground v.1.15,2013-03-18 08:14:00,
2013-03-18 03:24:00,33.7,30.5,29.70,WNW,284,0.0,0.0,88,0.00,,,0.01,Wunderground v.1.15,2013-03-18 08:24:00,
2013-03-18 03:29:00,33.8,30.6,29.70,WSW,240,0.0,0.0,88,0.00,,,0.01,Wunderground v.1.15,2013-03-18 08:29:00,
2013-03-18 03:39:00,33.7,30.5,29.70,SSW,208,0.0,0.0,88,0.00,,,0.01,Wunderground v.1.15,2013-03-18 08:39:00,
2013-03-18 03:49:00,33.7,30.8,29.69,SSW,208,0.0,0.0,89,0.00,,,0.02,Wunderground v.1.15,2013-03-18 08:49:00,
2013-03-18 03:59:00,33.7,30.8,29.69,SSW,208,0.0,0.0,89,0.00,,,0.02,Wunderground v.1.15,2013-03-18 08:59:00,
2013-03-18 04:10:00,33.7,30.8,29.67,SSW,200,0.0,0.0,89,0.00,,,0.03,Wunderground v.1.15,2013-03-18 09:10:00,
2013-03-18 04:15:00,33.7,30.8,29.67,SSW,200,0.0,0.0,89,0.00,,,0.03,Wunderground v.1.15,2013-03-18 09:15:00,
2013-03-18 04:25:00,33.8,30.9,29.67,SSW,200,0.0,0.0,89,0.00,,,0.03,Wunderground v.1.15,2013-03-18 09:25:00,
2013-03-18 04:30:00,34.0,31.1,29.67,South,186,0.0,0.0,89,0.00,,,0.03,Wunderground v.1.15,2013-03-18 09:30:00,
2013-03-18 04:40:00,33.8,30.9,29.65,WNW,291,0.0,0.0,89,0.00,,,0.03,Wunderground v.1.15,2013-03-18 09:40:00,
2013-03-18 04:50:00,33.8,30.9,29.70,WNW,295,0.0,0.0,89,0.00,,,0.03,Wunderground v.1.15,2013-03-18 09:50:00,
2013-03-18 05:00:00,33.7,30.8,29.70,WNW,287,0.0,0.0,89,0.00,,,0.03,Wunderground v.1.15,2013-03-18 10:00:00,
2013-03-18 05:10:00,33.7,30.8,29.70,WNW,285,0.0,0.0,89,0.00,,,0.03,Wunderground v.1.15,2013-03-18 10:10:00,
2013-03-18 05:15:00,33.7,30.8,29.70,WSW,254,0.0,0.0,89,0.00,,,0.03,Wunderground v.1.15,2013-03-18 10:15:00,
2013-03-18 05:25:00,33.7,31.1,29.70,West,263,0.0,0.0,90,0.00,,,0.03,Wunderground v.1.15,2013-03-18 10:25:00,
2013-03-18 05:35:00,33.7,31.1,29.70,WNW,282,0.0,0.0,90,0.00,,,0.03,Wunderground v.1.15,2013-03-18 10:35:00,
2013-03-18 05:44:00,33.7,31.1,29.70,WNW,288,0.0,0.0,90,0.00,,,0.03,Wunderground v.1.15,2013-03-18 10:44:00,
2013-03-18 05:50:00,33.7,31.1,29.69,WNW,288,0.0,0.0,90,0.00,,,0.03,Wunderground v.1.15,2013-03-18 10:50:00,
2013-03-18 06:00:00,33.5,30.9,29.69,WNW,291,0.0,0.0,90,0.00,,,0.03,Wunderground v.1.15,2013-03-18 11:00:00,
2013-03-18 06:09:00,33.5,30.9,29.69,WNW,287,0.0,0.0,90,0.00,,,0.03,Wunderground v.1.15,2013-03-18 11:09:00,
2013-03-18 06:19:00,33.7,31.1,29.70,WNW,291,0.0,0.0,90,0.00,,,0.03,Wunderground v.1.15,2013-03-18 11:19:00,
2013-03-18 06:24:00,33.7,31.1,29.70,WNW,285,0.0,0.0,90,0.00,,,0.03,Wunderground v.1.15,2013-03-18 11:24:00,
2013-03-18 06:34:00,33.7,31.1,29.70,WNW,285,0.0,0.0,90,0.00,,,0.03,Wunderground v.1.15,2013-03-18 11:34:00,
2013-03-18 06:44:00,33.8,31.2,29.70,WNW,287,0.0,0.0,90,0.00,,,0.03,Wunderground v.1.15,2013-03-18 11:44:00,
2013-03-18 06:49:00,33.8,31.2,29.70,WNW,282,0.0,0.0,90,0.00,,,0.03,Wunderground v.1.15,2013-03-18 11:49:00,
2013-03-18 06:59:00,33.8,31.2,29.70,West,277,0.0,0.0,90,0.00,,,0.03,Wunderground v.1.15,2013-03-18 11:59:00,
2013-03-18 07:09:00,34.0,31.4,29.71,West,267,0.0,0.0,90,0.00,,,0.03,Wunderground v.1.15,2013-03-18 12:09:00,
2013-03-18 07:14:00,34.1,31.5,29.71,WSW,241,0.0,0.0,90,0.00,,,0.03,Wunderground v.1.15,2013-03-18 12:14:00,
2013-03-18 07:24:00,34.3,31.7,29.72,West,281,0.0,0.0,90,0.00,,,0.03,Wunderground v.1.15,2013-03-18 12:24:00,
2013-03-18 07:34:00,34.4,31.8,29.72,WNW,282,0.0,0.0,90,0.00,,,0.03,Wunderground v.1.15,2013-03-18 12:34:00,
2013-03-18 07:44:00,34.7,32.1,29.72,WNW,287,0.0,0.0,90,0.00,,,0.03,Wunderground v.1.15,2013-03-18 12:44:00,
2013-03-18 07:54:00,35.2,32.6,29.72,WNW,295,0.0,0.0,90,0.00,,,0.03,Wunderground v.1.15,2013-03-18 12:54:00,
2013-03-18 07:59:00,35.3,32.7,29.72,WNW,284,0.0,0.0,90,0.00,,,0.03,Wunderground v.1.15,2013-03-18 12:59:00,
2013-03-18 08:09:00,35.8,33.2,29.73,NW,318,0.0,0.0,90,0.00,,,0.03,Wunderground v.1.15,2013-03-18 13:09:00,
2013-03-18 08:19:00,35.8,32.9,29.73,NW,313,0.0,0.0,89,0.00,,,0.03,Wunderground v.1.15,2013-03-18 13:19:00,
2013-03-18 08:29:00,36.2,33.3,29.73,NW,316,0.0,0.0,89,0.00,,,0.03,Wunderground v.1.15,2013-03-18 13:29:00,
2013-03-18 08:39:00,36.5,33.0,29.74,NNW,333,0.0,0.0,87,0.00,,,0.03,Wunderground v.1.15,2013-03-18 13:39:00,
2013-03-18 08:44:00,36.8,32.4,29.74,WNW,298,0.0,0.0,84,0.00,,,0.03,Wunderground v.1.15,2013-03-18 13:44:00,
2013-03-18 08:54:00,37.2,31.9,29.75,NW,315,0.0,0.0,81,0.00,,,0.03,Wunderground v.1.15,2013-03-18 13:54:00,
2013-03-18 09:04:00,37.6,31.7,29.75,WNW,298,0.0,0.0,79,0.00,,,0.03,Wunderground v.1.15,2013-03-18 14:04:00,
2013-03-18 09:10:00,37.8,31.2,29.75,NNW,328,0.0,0.0,77,0.00,,,0.03,Wunderground v.1.15,2013-03-18 14:10:00,
2013-03-18 09:20:00,38.0,31.1,29.76,NW,304,0.0,0.0,76,0.00,,,0.03,Wunderground v.1.15,2013-03-18 14:20:00,
2013-03-18 09:30:00,38.3,31.1,29.76,NW,320,0.0,0.0,75,0.00,,,0.03,Wunderground v.1.15,2013-03-18 14:30:00,
2013-03-18 09:40:00,38.5,30.9,29.76,NW,318,0.0,0.0,74,0.00,,,0.03,Wunderground v.1.15,2013-03-18 14:40:00,
2013-03-18 09:45:00,38.6,31.0,29.76,NW,305,0.0,0.0,74,0.00,,,0.03,Wunderground v.1.15,2013-03-18 14:45:00,
2013-03-18 09:55:00,39.1,31.5,29.76,NW,316,0.0,0.0,74,0.00,,,0.03,Wunderground v.1.15,2013-03-18 14:55:00,
2013-03-18 10:05:00,39.1,30.5,29.77,NNW,343,0.0,0.0,71,0.00,,,0.03,Wunderground v.1.15,2013-03-18 15:05:00,
2013-03-18 10:15:00,39.6,30.6,29.77,NW,325,0.0,0.0,70,0.00,,,0.03,Wunderground v.1.15,2013-03-18 15:15:00,
2013-03-18 10:20:00,39.8,30.8,29.77,NW,320,0.0,0.0,70,0.00,,,0.03,Wunderground v.1.15,2013-03-18 15:20:00,
2013-03-18 10:30:00,40.2,30.1,29.77,NW,326,0.0,0.0,67,0.00,,,0.03,Wunderground v.1.15,2013-03-18 15:30:00,
2013-03-18 10:40:00,40.2,30.8,29.77,NW,322,0.0,0.0,69,0.00,,,0.03,Wunderground v.1.15,2013-03-18 15:40:00,
2013-03-18 10:50:00,40.3,29.8,29.78,NW,313,0.0,0.0,66,0.00,,,0.03,Wunderground v.1.15,2013-03-18 15:50:00,
2013-03-18 10:59:00,40.5,28.9,29.78,NW,312,0.0,0.0,63,0.00,,,0.03,Wunderground v.1.15,2013-03-18 15:59:00,
2013-03-18 11:09:00,40.1,27.7,29.79,NW,323,0.0,0.0,61,0.00,,,0.03,Wunderground v.1.15,2013-03-18 16:09:00,
2013-03-18 11:14:00,40.1,27.7,29.79,NNW,332,0.0,0.0,61,0.00,,,0.03,Wunderground v.1.15,2013-03-18 16:14:00,
2013-03-18 11:24:00,40.6,28.6,29.79,WNW,302,0.0,0.0,62,0.00,,,0.03,Wunderground v.1.15,2013-03-18 16:24:00,
2013-03-18 11:34:00,40.5,27.3,29.79,NW,309,0.0,0.0,59,0.00,,,0.03,Wunderground v.1.15,2013-03-18 16:34:00,
2013-03-18 11:39:00,40.8,27.2,29.79,NW,320,0.0,0.0,58,0.00,,,0.03,Wunderground v.1.15,2013-03-18 16:39:00,
2013-03-18 11:49:00,41.6,27.9,29.80,NW,325,0.0,0.0,58,0.00,,,0.03,Wunderground v.1.15,2013-03-18 16:49:00,
2013-03-18 11:59:00,40.9,26.0,29.80,NNW,328,0.0,0.0,55,0.00,,,0.03,Wunderground v.1.15,2013-03-18 16:59:00,
2013-03-18 12:09:00,41.9,27.3,29.80,NW,320,0.0,0.0,56,0.00,,,0.03,Wunderground v.1.15,2013-03-18 17:09:00,
2013-03-18 12:14:00,41.5,25.6,29.80,NW,313,0.0,0.0,53,0.00,,,0.03,Wunderground v.1.15,2013-03-18 17:14:00,
2013-03-18 12:24:00,42.2,26.3,29.81,NNW,329,0.0,0.0,53,0.00,,,0.03,Wunderground v.1.15,2013-03-18 17:24:00,
2013-03-18 12:29:00,42.1,27.1,29.81,WNW,298,0.0,0.0,55,0.00,,,0.03,Wunderground v.1.15,2013-03-18 17:29:00,
2013-03-18 12:39:00,42.6,27.1,29.81,NW,320,0.0,0.0,54,0.00,,,0.03,Wunderground v.1.15,2013-03-18 17:39:00,
2013-03-18 12:49:00,43.8,26.3,29.81,WNW,298,0.0,0.0,50,0.00,,,0.03,Wunderground v.1.15,2013-03-18 17:49:00,
2013-03-18 12:59:00,44.2,26.2,29.81,NNW,335,0.0,0.0,49,0.00,,,0.03,Wunderground v.1.15,2013-03-18 17:59:00,
2013-03-18 13:09:00,43.9,25.5,29.82,NW,308,0.0,0.0,48,0.00,,,0.03,Wunderground v.1.15,2013-03-18 18:09:00,
2013-03-18 13:19:00,44.6,26.1,29.80,NW,316,0.0,0.0,48,0.00,,,0.03,Wunderground v.1.15,2013-03-18 18:19:00,
2013-03-18 13:24:00,44.9,26.4,29.80,NNW,328,0.0,0.0,48,0.00,,,0.03,Wunderground v.1.15,2013-03-18 18:24:00,
2013-03-18 13:34:00,46.1,27.0,29.80,NNW,335,0.0,0.0,47,0.00,,,0.03,Wunderground v.1.15,2013-03-18 18:34:00,
2013-03-18 13:44:00,47.0,26.2,29.80,NW,309,0.0,0.0,44,0.00,,,0.03,Wunderground v.1.15,2013-03-18 18:44:00,
2013-03-18 13:54:00,46.8,26.0,29.80,NW,305,0.0,0.0,44,0.00,,,0.03,Wunderground v.1.15,2013-03-18 18:54:00,
2013-03-18 13:59:00,46.1,24.3,29.80,NW,316,0.0,0.0,42,0.00,,,0.03,Wunderground v.1.15,2013-03-18 18:59:00,
2013-03-18 14:10:00,47.0,24.5,29.81,WNW,291,0.0,0.0,41,0.00,,,0.04,Wunderground v.1.15,2013-03-18 19:10:00,
2013-03-18 14:20:00,47.0,23.3,29.80,WNW,298,0.0,0.0,39,0.00,,,0.04,Wunderground v.1.15,2013-03-18 19:20:00,
2013-03-18 14:30:00,47.1,24.0,29.80,NW,326,0.0,0.0,40,0.00,,,0.04,Wunderground v.1.15,2013-03-18 19:30:00,
2013-03-18 14:40:00,47.6,25.0,29.80,NW,316,0.0,0.0,41,0.00,,,0.04,Wunderground v.1.15,2013-03-18 19:40:00,
2013-03-18 14:45:00,47.1,24.6,29.80,NW,308,0.0,0.0,41,0.00,,,0.04,Wunderground v.1.15,2013-03-18 19:45:00,
2013-03-18 14:55:00,47.6,21.9,29.80,NW,305,0.0,0.0,36,0.00,,,0.04,Wunderground v.1.15,2013-03-18 19:55:00,
2013-03-18 15:05:00,46.8,21.9,29.80,NW,325,0.0,0.0,37,0.00,,,0.04,Wunderground v.1.15,2013-03-18 20:05:00,
2013-03-18 15:15:00,46.8,23.1,29.80,NNW,328,0.0,0.0,39,0.00,,,0.04,Wunderground v.1.15,2013-03-18 20:15:00,
2013-03-18 15:24:00,46.4,23.4,29.80,WNW,287,0.0,0.0,40,0.00,,,0.04,Wunderground v.1.15,2013-03-18 20:24:00,
2013-03-18 15:30:00,46.4,22.8,29.80,NW,323,0.0,0.0,39,0.00,,,0.04,Wunderground v.1.15,2013-03-18 20:30:00,
2013-03-18 15:35:00,47.0,23.9,29.79,WNW,295,0.0,0.0,40,0.00,,,0.04,Wunderground v.1.15,2013-03-18 20:35:00,
2013-03-18 15:44:00,47.3,23.6,29.79,WNW,296,0.0,0.0,39,0.00,,,0.04,Wunderground v.1.15,2013-03-18 20:44:00,
2013-03-18 15:54:00,46.7,22.4,29.80,NW,316,0.0,0.0,38,0.00,,,0.04,Wunderground v.1.15,2013-03-18 20:54:00,
2013-03-18 15:59:00,47.1,22.1,29.80,NW,313,0.0,0.0,37,0.00,,,0.04,Wunderground v.1.15,2013-03-18 20:59:00,
2013-03-18 16:09:00,47.4,23.0,29.80,NNW,330,0.0,0.0,38,0.00,,,0.04,Wunderground v.1.15,2013-03-18 21:09:00,
2013-03-18 16:19:00,46.8,21.2,29.80,NW,320,0.0,0.0,36,0.00,,,0.04,Wunderground v.1.15,2013-03-18 21:19:00,
2013-03-18 16:29:00,46.2,20.7,29.80,NW,316,0.0,0.0,36,0.00,,,0.04,Wunderground v.1.15,2013-03-18 21:29:00,
2013-03-18 16:34:00,46.5,21.6,29.81,WNW,301,0.0,0.0,37,0.00,,,0.04,Wunderground v.1.15,2013-03-18 21:34:00,
2013-03-18 16:44:00,47.3,21.0,29.81,NW,318,0.0,0.0,35,0.00,,,0.04,Wunderground v.1.15,2013-03-18 21:44:00,
2013-03-18 16:54:00,46.8,19.9,29.81,NNW,328,0.0,0.0,34,0.00,,,0.04,Wunderground v.1.15,2013-03-18 21:54:00,
2013-03-18 16:59:00,46.5,18.9,29.81,NNW,328,0.0,0.0,33,0.00,,,0.04,Wunderground v.1.15,2013-03-18 21:59:00,
2013-03-18 17:09:00,46.4,18.8,29.82,WNW,296,0.0,0.0,33,0.00,,,0.04,Wunderground v.1.15,2013-03-18 22:09:00,
2013-03-18 17:19:00,47.0,20.0,29.82,WNW,301,0.0,0.0,34,0.00,,,0.04,Wunderground v.1.15,2013-03-18 22:19:00,
2013-03-18 17:29:00,46.0,19.2,29.82,NNW,346,0.0,0.0,34,0.00,,,0.04,Wunderground v.1.15,2013-03-18 22:29:00,
2013-03-18 17:39:00,45.4,19.3,29.83,NNW,333,0.0,0.0,35,0.00,,,0.04,Wunderground v.1.15,2013-03-18 22:39:00,
2013-03-18 17:44:00,45.5,19.4,29.83,NNW,339,0.0,0.0,35,0.00,,,0.04,Wunderground v.1.15,2013-03-18 22:44:00,
2013-03-18 17:54:00,45.5,19.4,29.83,NW,318,0.0,0.0,35,0.00,,,0.04,Wunderground v.1.15,2013-03-18 22:54:00,
2013-03-18 18:04:00,45.1,17.7,29.84,WNW,299,0.0,0.0,33,0.00,,,0.04,Wunderground v.1.15,2013-03-18 23:04:00,
2013-03-18 18:14:00,44.6,16.5,29.84,NW,319,0.0,0.0,32,0.00,,,0.04,Wunderground v.1.15,2013-03-18 23:14:00,
2013-03-18 18:24:00,44.1,16.1,29.85,NW,319,0.0,0.0,32,0.00,,,0.04,Wunderground v.1.15,2013-03-18 23:24:00,
2013-03-18 18:29:00,43.8,15.8,29.85,NNW,346,0.0,0.0,32,0.00,,,0.04,Wunderground v.1.15,2013-03-18 23:29:00,
2013-03-18 18:39:00,43.3,15.4,29.85,NW,315,0.0,0.0,32,0.00,,,0.04,Wunderground v.1.15,2013-03-18 23:39:00,
2013-03-18 18:49:00,43.1,16.6,29.87,NW,318,0.0,0.0,34,0.00,,,0.04,Wunderground v.1.15,2013-03-18 23:49:00,
2013-03-18 18:59:00,42.5,16.1,29.87,NNW,332,0.0,0.0,34,0.00,,,0.04,Wunderground v.1.15,2013-03-18 23:59:00,
2013-03-18 19:05:00,42.1,16.4,29.87,NW,319,0.0,0.0,35,0.00,,,0.04,Wunderground v.1.15,2013-03-19 00:05:00,
2013-03-18 19:15:00,41.2,16.2,29.87,NW,308,0.0,0.0,36,0.00,,,0.04,Wunderground v.1.15,2013-03-19 00:15:00,
2013-03-18 19:20:00,40.8,15.9,29.88,NW,312,0.0,0.0,36,0.00,,,0.04,Wunderground v.1.15,2013-03-19 00:20:00,
2013-03-18 19:30:00,40.1,15.9,29.88,NNW,336,0.0,0.0,37,0.00,,,0.04,Wunderground v.1.15,2013-03-19 00:30:00,
2013-03-18 19:40:00,38.9,16.0,29.89,NNW,340,0.0,0.0,39,0.00,,,0.04,Wunderground v.1.15,2013-03-19 00:40:00,
2013-03-18 19:50:00,37.9,16.3,29.91,NW,320,0.0,0.0,41,0.00,,,0.04,Wunderground v.1.15,2013-03-19 00:50:00,
2013-03-18 20:00:00,37.0,16.0,29.91,NW,319,0.0,0.0,42,0.00,,,0.04,Wunderground v.1.15,2013-03-19 01:00:00,
2013-03-18 20:05:00,36.8,16.4,29.92,NW,323,0.0,0.0,43,0.00,,,0.04,Wunderground v.1.15,2013-03-19 01:05:00,
2013-03-18 20:15:00,36.5,16.1,29.92,NNW,336,0.0,0.0,43,0.00,,,0.04,Wunderground v.1.15,2013-03-19 01:15:00,
2013-03-18 20:25:00,36.2,15.8,29.93,NW,313,0.0,0.0,43,0.00,,,0.04,Wunderground v.1.15,2013-03-19 01:25:00,
2013-03-18 20:30:00,36.0,16.2,29.93,North,357,0.0,0.0,44,0.00,,,0.04,Wunderground v.1.15,2013-03-19 01:30:00,
2013-03-18 20:40:00,35.6,14.7,29.93,North,359,0.0,0.0,42,0.00,,,0.04,Wunderground v.1.15,2013-03-19 01:40:00,
2013-03-18 20:49:00,35.0,14.2,29.94,NW,325,0.0,0.0,42,0.00,,,0.04,Wunderground v.1.15,2013-03-19 01:49:00,
2013-03-18 20:55:00,34.7,13.9,29.94,NNW,335,0.0,0.0,42,0.00,,,0.04,Wunderground v.1.15,2013-03-19 01:55:00,
2013-03-18 21:04:00,33.8,13.6,29.94,NNW,328,0.0,0.0,43,0.00,,,0.04,Wunderground v.1.15,2013-03-19 02:04:00,
2013-03-18 21:14:00,32.8,13.2,29.94,North,354,0.0,0.0,44,0.00,,,0.04,Wunderground v.1.15,2013-03-19 02:14:00,
2013-03-18 21:24:00,32.1,13.1,29.95,North,0,0.0,0.0,45,0.00,,,0.04,Wunderground v.1.15,2013-03-19 02:24:00,
2013-03-18 21:29:00,31.8,13.3,29.95,North,359,0.0,0.0,46,0.00,,,0.04,Wunderground v.1.15,2013-03-19 02:29:00,
2013-03-18 21:39:00,31.8,13.8,29.95,North,359,0.0,0.0,47,0.00,,,0.04,Wunderground v.1.15,2013-03-19 02:39:00,
2013-03-18 21:49:00,31.8,13.8,29.96,North,356,0.0,0.0,47,0.00,,,0.04,Wunderground v.1.15,2013-03-19 02:49:00,
2013-03-18 21:59:00,31.5,14.0,29.96,North,354,0.0,0.0,48,0.00,,,0.04,Wunderground v.1.15,2013-03-19 02:59:00,
2013-03-18 22:04:00,31.2,13.8,29.96,North,357,0.0,0.0,48,0.00,,,0.04,Wunderground v.1.15,2013-03-19 03:04:00,
2013-03-18 22:14:00,30.9,13.5,29.96,NNW,347,0.0,0.0,48,0.00,,,0.04,Wunderground v.1.15,2013-03-19 03:14:00,
2013-03-18 22:24:00,30.4,13.0,29.96,North,357,0.0,0.0,48,0.00,,,0.04,Wunderground v.1.15,2013-03-19 03:24:00,
2013-03-18 22:34:00,30.4,13.0,29.97,North,354,0.0,0.0,48,0.00,,,0.04,Wunderground v.1.15,2013-03-19 03:34:00,
2013-03-18 22:44:00,30.3,13.4,29.97,North,353,0.0,0.0,49,0.00,,,0.04,Wunderground v.1.15,2013-03-19 03:44:00,
2013-03-18 22:54:00,29.7,12.8,29.98,North,353,0.0,0.0,49,0.00,,,0.04,Wunderground v.1.15,2013-03-19 03:54:00,
2013-03-18 22:59:00,29.1,12.8,29.98,NNW,339,0.0,0.0,50,0.00,,,0.04,Wunderground v.1.15,2013-03-19 03:59:00,
2013-03-18 23:04:00,29.0,12.7,29.98,NNW,337,0.0,0.0,50,0.00,,,0.04,Wunderground v.1.15,2013-03-19 04:04:00,
2013-03-18 23:09:00,28.8,12.5,29.98,NNW,337,0.0,0.0,50,0.00,,,0.04,Wunderground v.1.15,2013-03-19 04:09:00,
2013-03-18 23:19:00,29.1,12.8,29.99,West,281,0.0,0.0,50,0.00,,,0.04,Wunderground v.1.15,2013-03-19 04:19:00,
2013-03-18 23:24:00,29.7,13.3,29.99,WSW,251,0.0,0.0,50,0.00,,,0.04,Wunderground v.1.15,2013-03-19 04:24:00,
2013-03-18 23:29:00,29.7,13.3,29.99,WSW,253,0.0,0.0,50,0.00,,,0.04,Wunderground v.1.15,2013-03-19 04:29:00,
2013-03-18 23:34:00,29.4,13.0,29.99,WSW,253,0.0,0.0,50,0.00,,,0.04,Wunderground v.1.15,2013-03-19 04:34:00,
2013-03-18 23:44:00,29.0,13.1,29.99,WSW,253,0.0,0.0,51,0.00,,,0.04,Wunderground v.1.15,2013-03-19 04:44:00,
2013-03-18 23:49:00,28.5,13.1,29.99,WSW,253,0.0,0.0,52,0.00,,,0.04,Wunderground v.1.15,2013-03-19 04:49:00,
2013-03-18 23:59:00,28.2,13.2,29.99,WSW,251,0.0,0.0,53,0.00,,,0.04,Wunderground v.1.15,2013-03-19 04:59:00,